Regional Weather Roundup
Issued by NWS

Home | Current Version | Previous Version | Text Only | Print | Product List | Glossary Off
Versions: 1 2 3 4 5 6 7 8 9 10 11 12 13 14 15 16 17 18 19 20 21 22 23 24 25 26 27 28 29 30 31 32 33 34 35 36 37 38 39 40 41 42 43 44 45 46 47 48 49 50

000
ASUS45 KSLC 261710
RWRUT

UTAH REGIONAL WEATHER ROUNDUP
NATIONAL WEATHER SERVICE SALT LAKE CITY UT
1100 AM MDT SUN APR 26 2015

UTZ001>011-023>025-261800-

NORTHERN UTAH

CITY           SKY/WX    TMP DP  RH WIND       PRES   REMARKS
BRIGHAM CITY   MOSUNNY   46  32  58 N6        29.97R
HILL AFB       NOT AVBL
LOGAN          CLOUDY    42  33  70 N10       29.96R
OGDEN          MOSUNNY   46  33  60 N13       29.95R
PROVO AIRPORT  PTSUNNY   45  34  65 NW25G33   29.94R
SALT LAKE CITY PTSUNNY   46  35  65 N12       29.97R
VERNAL         CLOUDY    49  41  74 SE7       29.81R
WENDOVER       SUNNY     48  19  32 NW23G33   30.00R
HEBER CITY     CLOUDY    41  32  70 SE3       29.92R
WEST JORDAN    CLOUDY    43  37  81 N8        29.98R

$$

UTZ012>022-026-027-261800-

SOUTHERN/CENTRAL UTAH

CITY           SKY/WX    TMP DP  RH WIND       PRES   REMARKS
BLANDING       PTSUNNY   47  39  74 CALM      29.86R
BRYCE CANYON   PTSUNNY   37  29  72 NW23      29.88R WCI  26
CEDAR CITY     CLOUDY    41  33  73 N14       29.94R
DELTA          MOSUNNY   44  31  60 NW20G28   29.98R
HANKSVILLE     CLOUDY    55  36  47 N8        29.81R
MILFORD        MOSUNNY   48  29  47 NE21G30   29.95R
MOAB/CYNLANDS  PTSUNNY   51  44  77 W12       29.77R
PRICE          NOT AVBL
ST GEORGE      PTSUNNY   55  37  50 SE12      29.90S
KANAB          PTSUNNY   50  34  53 NW9       29.90R

$$

REGIONAL REPORTS     COLORADO/ARIZONA

CITY           SKY/WX    TMP DP  RH WIND       PRES   REMARKS
CRAIG, CO      PTSUNNY   54  38  54 VRB3      29.78R
GRAND JUNCTION LGT RAIN  44  40  85 N3        29.80R
RIFLE          PTSUNNY   49  41  74 W7        29.77S
MONTROSE       CLOUDY    44  40  85 NW12      29.81R
CORTEZ         CLOUDY    46  39  76 NE6       29.79R
PAGE, AZ       MOSUNNY   57  35  43 NW10G17   29.79S
GRAND CANYON   MOSUNNY   43  34  70 N12G22    29.85S
KINGMAN        MOSUNNY   58  35  42 N18G25    29.91R
FLAGSTAFF      CLOUDY    42  36  79 NW7       29.85R

$$

REGIONAL REPORTS    NEVADA/IDAHO/WYOMING

CITY           SKY/WX    TMP DP  RH WIND       PRES   REMARKS
LAS VEGAS, NV  MOSUNNY   65  27  23 NW16G22   29.90R
ELY            MOSUNNY   42  23  46 N20G25    30.01S
ELKO           SUNNY     43  21  41 NW9G22    30.08R
POCATELLO, ID  LGT RAIN  40  31  70 SW20      30.00R WCI  30
BURLEY         SUNNY     46  25  43 W22G31    30.01R
EVANSTON, WY   CLOUDY    32  30  92 W8        29.92R WCI  25
ROCK SPRINGS   LGT RAIN  43  36  76 W16       29.84R
KEMMERER       CLOUDY    36  32  87 W18G24    29.88R WCI  25

$$



USA.gov is the U.S. government's official web portal to all federal, state and local government web resources and services.